CAPE
972 835 1268 1401 1422 1749 1781 1601 1653 1658 1272 1533 1690 1947 1841 1754 1708 1714 1610 1232 1061 998 919 1132 834 962 834 746 685 690 633 694 551 484 441 363 706 667 697 807 776 701 690
1342 1429 1207 859 1257 1278 1607 1742 1579 1579 1361 1428 1545 1461 1779 1667 1746 1730 1549 1198 1092 934 889 1144 1057 1105 1410 1057 834 646 562 663 625 516 306 475 509 627 844 886 813 596 677
1318 1445 1465 1351 1039 975 818 968 1323 1451 1534 1614 1663 1569 1625 1511 1601 1494 1550 1327 1222 1236 1011 1229 1424 1330 1297 1266 1068 808 716 681 647 467 405 466 403 546 764 778 596 222 96
1392 1365 1306 1316 1197 947 836 630 720 847 1097 1226 1345 1107 1192 1418 1394 1322 1310 1372 1308 1318 1280 1163 1031 1132 1048 1238 1229 990 650 600 522 676 471 465 436 457 586 485 577 396 250
1351 1314 1278 1083 791 832 732 522 302 264 175 136 263 646 949 1108 1064 1193 1301 1246 1370 1314 1125 984 1007 1065 775 1020 934 694 523 569 493 491 473 516 308 443 488 450 322 345 464
1141 1211 1182 1056 651 583 490 379 315 232 109 92 49 27 46 273 531 611 785 1284 1175 973 1112 1114 1161 789 405 650 586 323 513 488 522 522 389 385 464 553 508 453 439 336 168
669 763 888 810 666 535 381 341 206 59 46 90 37 76 113 327 308 252 323 896 987 1036 1365 1235 987 693 556 767 219 171 158 374 419 630 576 551 527 505 453 552 425 321 171
291 283 512 603 406 292 372 179 93 100 98 49 13 115 108 189 41 48 69 299 911 964 909 1004 711 443 410 340 269 188 246 404 387 408 532 694 697 682 719 524 529 477 519
82 112 197 178 144 22 302 313 381 244 92 27 12 22 60 108 22 0 0 0 146 304 227 253 168 71 29 41 54 113 206 426 499 339 291 330 279 278 388 532 377 450 414
6 92 182 317 382 450 400 420 401 333 242 241 211 74 55 214 51 0 0 3 134 168 200 28 14 4 9 5 40 81 129 141 460 584 640 352 234 368 135 297 410 383 341
28 0 95 276 417 425 426 427 314 362 319 205 77 27 11 0 93 0 0 12 67 10 41 12 0 0 0 0 0 29 55 110 117 224 285 520 558 680 627 432 448 489 393
0 4 40 184 219 461 545 501 553 470 344 184 77 2 2 1 0 0 1 0 73 188 1 49 42 0 0 0 0 1 0 2 49 172 317 248 302 351 338 267 455 587 659
0 0 17 13 54 260 319 299 174 280 363 229 107 57 10 0 0 0 0 0 0 2 0 0 0 0 0 0 0 0 0 1 7 29 56 99 198 137 184 131 155 48 431
0 0 0 0 0 1 37 26 1 0 0 0 3 20 5 1 0 0 0 0 0 0 0 0 0 0 0 0 0 0 0 1 17 25 15 28 52 65 27 84 121 144 157
0 0 0 0 0 0 0 11 4 0 0 1 2 4 6 3 0 0 0 0 0 0 0 0 0 0 0 0 0 0 0 3 6 12 7 9 34 151 260 254 169 97 46
0 0 0 1 4 0 0 0 0 0 0 0 0 0 0 0 0 0 0 0 0 0 0 0 0 0 0 0 0 0 0 0 0 2 3 6 3 3 21 86 111 227 222
0 0 5 9 19 27 34 8 48 0 0 0 0 0 0 0 0 0 0 0 0 0 0 0 0 0 1 0 0 0 0 3 3 5 7 8 15 4 1 4 6 30 102
0 0 5 4 2 9 9 9 14 22 21 12 0 0 0 0 0 0 0 0 0 0 0 0 0 4 0 0 0 1 2 4 0 6 19 12 1 20 15 3 2 6 23
0 0 0 0 0 0 0 0 0 1 2 5 21 0 0 0 0 0 0 0 1 7 10 13 5 0 0 1 2 4 8 7 4 5 2 0 5 19 5 29 15 4 0
0 0 0 0 0 0 0 0 0 0 0 0 0 0 0 0 0 11 2 15 11 9 10 3 5 3 0 1 8 13 10 12 16 11 13 12 12 11 4 2 7 15 20
0 0 0 0 0 0 0 0 0 0 0 0 0 1 0 0 0 1 0 4 9 11 8 3 3 2 2 2 1 6 8 1 2 7 6 3 0 9 11 28 23 1 0
3 10 3 1 1 0 0 0 0 0 0 0 0 2 0 0 0 4 5 10 15 8 0 0 0 0 1 0 2 13 6 0 2 2 4 3 7 21 19 13 16 15 21
23 31 28 29 25 5 7 7 13 9 0 0 0 0 3 8 23 19 22 31 34 32 35 30 6 0 1 2 10 7 11 17 21 27 14 10 11 12 15 11 15 5 1
10 18 23 35 33 0 18 16 9 9 3 3 1 0 0 8 15 31 47 52 60 62 51 44 34 23 9 8 17 22 24 22 43 39 31 24 7 6 15 16 20 13 5
31 20 17 28 33 33 30 30 27 26 25 28 27 20 14 22 19 22 37 53 81 105 92 71 59 44 37 35 40 39 49 0 7 4 1 9 26 14 19 22 27 18 12
7 7 3 6 14 18 17 11 10 12 18 9 8 11 19 34 44 33 31 32 35 48 78 100 132 108 78 62 53 47 27 0 0 0 0 9 21 2 18 30 25 14 9
CIN
-100 -132 -32 -38 -25 -0 -39 -12 -5 -1 -13 -12 -4 -0 -1 -1 -1 -0 -3 -2 -1 -2 -1 -9 -52 -15 -7 -8 -8 -1 -1 -0 -0 -1 -2 -3 -5 -12 -1 -0 -0 -0 -0
-16 -9 -66 -151 -36 -114 -0 -0 -18 -1 -7 -13 -21 -6 -1 -0 -1 -1 -1 -21 -1 -1 -2 -1 -2 -1 -0 -1 -1 -2 -3 -1 -2 -0 -3 -1 -3 -0 -0 -0 -0 -0 -0
-8 -1 -3 -37 -58 -63 -53 -31 -1 -0 -1 -1 -0 -1 -0 -2 -0 -1 -0 -1 -1 -1 -1 -1 -1 -0 -0 -0 -0 -1 -1 -1 -6 -2 -1 -1 -1 -1 -0 -1 -10 -48 -89
-1 -0 -11 -6 -4 -15 -37 -62 -30 -9 -0 -0 -0 -2 -3 -1 -1 -0 -1 -1 -1 -1 -1 -1 -1 -1 -1 -1 -0 -0 -1 -6 -10 -1 -0 -0 -12 -2 -1 -1 -1 -9 -11
-0 -0 -0 -1 -46 -15 -32 -60 -105 -123 -129 -132 -61 -1 -0 -0 -1 -0 -1 -1 -3 -0 -0 -3 -1 -1 -8 -1 -1 -1 -1 -0 -2 -1 -1 -0 -33 -1 -0 -1 -3 -2 -0
-0 -0 -0 -0 -27 -4 -19 -38 -50 -73 -100 -81 -112 -106 -36 -28 -2 -9 -15 -1 -2 -11 -11 -1 -1 -11 -28 -10 -9 -17 -2 -2 -0 -0 -2 -1 -3 -6 -7 -0 -0 -1 -5
-2 -3 -1 -1 -0 -1 -2 -7 -29 -60 -91 -46 -54 -21 -11 -0 -3 -25 -37 -1 -1 -1 -0 -0 -1 -6 -21 -2 -55 -38 -35 -10 -5 -4 -5 -2 -17 -9 -3 -0 -1 -1 -0
-17 -9 -1 -4 -18 -26 -2 -19 -58 -14 -17 -42 -47 -1 -0 -24 -53 -102 -90 -32 -0 -0 -0 -0 -1 -22 -18 -5 -23 -23 -11 -3 -16 -2 -1 -0 -1 -0 -0 -0 -0 -3 -0
-2 -2 -0 -22 -102 -162 -32 -1 -0 -0 -32 -118 -87 -82 -26 -14 -141 -17 -0 -1 -11 -0 -16 -20 -71 -85 -65 -32 -39 -23 -7 -2 -3 -22 -21 -14 -35 -35 -14 -1 -1 -0 -0
-49 -10 -0 -10 -48 -17 -0 -3 -24 -0 -0 -0 -0 -48 -14 -0 -11 -0 -0 -10 -0 -0 -0 -72 -89 -111 -86 -39 -34 -21 -15 -12 -1 -1 -3 -32 -54 -36 -78 -32 -2 -1 -0
-26 -0 -27 -1 -1 -3 -0 -9 -15 -0 -0 -15 -88 -110 -49 -4 -0 -0 -0 -24 -2 -12 -13 -47 -0 -0 -0 -0 -13 -24 -14 -11 -25 -28 -9 -3 -1 -2 -5 -30 -18 -2 -1
-0 -56 -49 -0 -3 -0 -6 -5 -22 -1 -0 -36 -149 -172 -0 -0 -0 -0 -0 -0 -13 -0 -72 -36 -6 -0 -0 -0 -0 -90 -26 -95 -89 -18 -14 -33 -18 -11 -17 -18 -5 -1 -3
-0 -5 -72 -155 -107 -7 -6 -14 -30 -5 -1 -12 -27 -74 -123 -0 -0 -0 -0 -0 -0 -2 -5 -0 -0 -0 -0 -0 -0 -0 -0 -36 -76 -62 -53 -65 -10 -28 -27 -22 -60 -65 -1
-0 -0 -0 -0 -0 -27 -8 -32 -0 -0 -0 -0 -0 -26 -31 -0 -0 -0 -0 -0 -0 -0 -0 -0 -0 -0 -0 -0 -0 -0 -0 -43 -30 -22 -42 -76 -66 -62 -99 -26 -20 -22 -8
-0 -0 -0 -0 -0 -0 -0 -11 -1 -0 -0 -0 -0 -1 -0 -1 -0 -0 -0 -0 -0 -0 -0 -0 -0 -0 -0 -0 -0 -0 -0 -0 -0 -77 -52 -114 -74 -19 -1 -0 -2 -26 -19
-0 -0 -0 -0 -1 -0 -0 -0 -0 -0 -0 -0 -0 -0 -0 -0 -0 -0 -0 -0 -0 -0 -0 -0 -0 -0 -0 -0 -0 -0 -0 -0 -0 -0 -0 -0 -0 -36 -101 -37 -9 -0 -0
-0 -0 -1 -2 -2 -1 -1 -2 -1 -0 -0 -0 -0 -0 -0 -0 -0 -0 -0 -0 -0 -0 -0 -0 -0 -0 -0 -0 -0 -0 -1 -0 -1 -0 -0 -0 -0 -1 -1 -0 -175 -35 -1
-0 -0 -1 -1 -0 -1 -1 -0 -0 -0 -1 -8 -0 -0 -0 -0 -0 -0 -0 -0 -0 -0 -0 -0 -0 -0 -0 -0 -0 -0 -3 -0 -0 -0 -0 -0 -1 -0 -0 -0 -1 -0 -97
-0 -0 -0 -0 -0 -0 -0 -0 -0 -0 -0 -1 -13 -23 -0 -0 -0 -0 -0 -0 -1 -1 -2 -0 -1 -0 -0 -0 -0 -0 -0 -0 -0 -0 -0 -0 -0 -0 -3 -0 -0 -0 -0
-0 -0 -0 -0 -0 -0 -0 -0 -0 -0 -0 -0 -0 -0 -0 -0 -0 -3 -29 -1 -0 -1 -1 -1 -1 -0 -1 -0 -0 -0 -0 -0 -0 -0 -0 -0 -0 -0 -0 -0 -0 -1 -0
-0 -0 -0 -0 -0 -0 -0 -0 -0 -0 -0 -0 -0 -0 -0 -0 -0 -0 -0 -1 -1 -1 -1 -1 -1 -1 -0 -0 -1 -1 -1 -1 -1 -1 -1 -1 -5 -1 -0 -0 -0 -0 -0
-2 -2 -2 -0 -0 -0 -0 -0 -0 -0 -0 -0 -0 -4 -0 -0 -0 -2 -1 -2 -1 -1 -0 -0 -0 -0 -0 -1 -1 -1 -1 -0 -1 -0 -2 -1 -1 -0 -0 -1 -1 -0 -0
-2 -1 -3 -3 -2 -3 -1 -1 -1 -2 -0 -0 -0 -0 -2 -2 -3 -3 -2 -2 -1 -1 -1 -1 -1 -0 -0 -0 -0 -0 -1 -2 -1 -1 -0 -0 -1 -1 -1 -0 -1 -1 -0
-18 -3 -1 -2 -3 -0 -2 -2 -2 -4 -1 -2 -3 -1 -0 -3 -2 -3 -3 -2 -2 -1 -2 -1 -1 -1 -5 -9 -3 -0 -2 -4 -1 -0 -1 -0 -1 -2 -1 -1 -1 -0 -1
-1 -2 -1 -2 -1 -1 -1 -2 -3 -1 -1 -3 -3 -1 -3 -3 -2 -4 -4 -2 -0 -2 -2 -1 -1 -2 -1 -1 -23 -3 -1 -0 -20 -33 -19 -1 -1 -2 -2 -1 -2 -0 -1
-2 -2 -2 -2 -3 -2 -1 -1 -1 -2 -1 -3 -3 -4 -3 -2 -3 -3 -1 -4 -7 -11 -8 -3 -1 -1 -1 -1 -2 -4 -35 -0 -0 -0 -0 -5 -2 -17 -3 -2 -1 -3 -1
Wind_Speed
29 28 28 28 28 30 34 38 37 34 31 36 32 29 23 19 17 16 14 13 12 11 10 10 11 11 12 10 12 13 15 10 9 14 19 22 19 19 21 18 19 22 23
33 31 30 29 32 31 34 35 37 35 33 26 34 31 29 24 23 20 19 18 17 15 14 13 11 11 11 11 11 11 11 11 9 14 17 15 13 16 15 14 13 17 22
32 33 33 31 31 32 35 37 37 36 34 32 28 29 24 27 24 23 24 24 22 20 19 18 16 14 15 13 12 13 11 10 12 15 16 14 18 16 14 13 11 12 18
33 32 34 35 31 31 29 35 35 37 36 35 35 36 31 27 27 26 25 26 24 22 21 21 19 18 16 15 15 15 13 11 12 14 15 17 17 19 16 17 13 10 11
32 33 34 27 22 22 23 27 28 30 34 37 39 36 35 35 34 28 28 27 25 24 25 23 21 21 18 18 17 15 15 16 16 16 18 17 17 16 16 16 16 17 11
32 30 18 13 15 19 23 28 27 28 31 33 34 36 39 39 37 33 33 33 32 29 28 27 24 22 21 21 19 20 17 14 17 18 20 21 19 16 16 17 15 16 14
23 20 10 12 17 21 23 26 25 25 25 27 29 32 35 33 29 30 30 32 32 31 31 29 26 25 23 21 17 21 21 17 17 21 22 21 21 18 18 18 17 15 16
20 19 12 10 12 15 19 20 22 23 25 26 26 26 27 27 27 28 28 27 27 31 33 29 27 26 24 25 22 23 20 20 19 21 25 24 22 21 18 19 19 20 19
16 17 14 13 16 15 19 21 17 19 21 23 22 22 24 27 27 24 21 25 27 28 29 29 26 26 28 28 26 22 22 20 21 17 24 29 27 24 20 21 22 20 21
12 12 10 10 11 19 20 19 18 17 17 18 18 19 27 25 24 21 15 15 17 22 19 21 23 25 24 24 26 24 27 22 21 21 25 29 30 29 25 24 23 26 24
9 9 10 11 12 17 17 16 13 12 12 12 12 15 17 19 16 14 9 12 8 14 17 17 20 17 16 21 21 26 24 25 23 25 29 30 29 28 28 25 25 26 26
11 11 9 10 11 12 13 12 13 12 11 13 13 14 14 14 13 13 9 9 13 19 19 21 17 13 14 12 16 23 29 29 27 31 30 29 27 26 25 26 29 28 28
14 13 13 13 15 15 14 14 13 14 14 14 13 13 14 14 13 12 12 12 14 16 17 17 14 12 15 21 16 13 19 25 29 34 38 38 33 33 30 32 29 31 31
15 15 15 15 15 16 15 15 15 15 15 15 14 14 14 14 14 14 14 14 14 15 17 16 16 16 12 11 13 9 9 10 21 32 31 34 40 45 45 38 39 38 40
15 15 16 16 17 17 17 17 16 16 16 16 15 15 15 14 15 15 16 16 17 18 17 16 16 16 17 14 16 17 18 19 17 23 27 28 30 33 43 36 40 36 45
16 16 16 16 17 17 17 15 15 15 16 15 15 15 15 14 14 15 16 17 18 18 16 17 17 19 20 20 21 23 24 23 24 26 25 23 24 26 27 24 28 35 36
16 15 15 16 16 16 16 15 14 14 15 16 16 16 16 14 14 16 17 18 18 20 19 18 19 19 19 20 21 22 24 24 25 25 25 27 27 28 31 31 30 26 25
15 15 16 16 17 17 17 17 16 16 17 15 17 18 17 15 15 17 19 21 20 16 19 22 21 20 19 19 21 22 22 24 24 25 26 27 27 29 29 29 29 31 30
15 16 17 17 17 17 17 17 18 18 19 20 17 16 15 16 18 19 20 23 25 24 23 20 20 20 21 22 22 21 22 24 25 25 26 27 29 29 30 29 29 28 29
16 17 18 18 18 19 20 21 21 21 22 21 21 20 17 18 18 18 16 21 23 23 22 22 21 19 19 22 22 22 23 23 24 25 26 27 28 28 30 32 33 33 32
19 19 20 21 22 23 24 24 25 25 25 25 24 20 21 24 25 24 23 22 22 23 23 24 23 21 21 22 22 23 23 23 24 26 28 28 28 30 30 30 31 32 35
20 21 22 23 24 24 26 26 26 27 27 27 26 24 18 22 24 24 25 24 23 23 23 24 25 24 23 23 24 24 24 24 24 25 27 29 29 30 30 32 32 34 34
23 23 25 25 26 26 27 26 27 27 28 28 27 27 25 24 23 23 24 24 23 23 22 22 23 25 23 23 22 23 25 26 26 26 27 28 29 30 31 32 33 33 33
27 26 27 27 26 27 25 27 27 27 27 27 26 27 27 28 28 28 27 27 26 26 25 25 26 25 24 24 24 24 24 24 25 24 27 28 29 30 31 32 32 34 36
24 26 26 27 27 28 28 28 28 28 29 29 30 30 30 30 30 30 31 31 31 30 29 29 28 29 29 28 28 26 25 25 26 27 27 30 31 31 31 30 31 32 35
26 27 28 29 28 28 28 29 29 30 31 31 31 30 30 31 30 30 31 31 33 35 37 36 35 32 31 30 28 27 26 24 25 25 25 27 28 27 27 28 29 28 30
Wind_Direction
283 279 277 270 269 264 259 261 263 265 261 260 261 264 260 252 247 247 245 253 242 239 250 262 265 277 282 281 287 286 293 291 287 312 317 318 323 322 321 328 327 325 322
280 279 277 274 271 271 268 266 264 263 263 258 260 263 264 262 261 255 255 260 258 261 264 270 273 284 285 287 290 282 287 293 294 309 316 322 328 331 332 338 342 336 326
281 278 277 276 270 269 268 267 264 266 265 261 256 261 261 265 265 262 263 266 266 267 271 278 282 286 291 294 292 295 291 292 302 305 312 322 322 331 335 341 345 345 329
280 281 279 274 269 267 269 265 267 264 266 265 264 266 266 267 265 266 264 264 265 269 273 277 279 282 287 290 292 292 292 296 298 301 306 310 317 320 326 325 339 347 344
284 284 275 273 272 271 269 270 271 270 269 269 268 269 268 267 268 266 266 263 262 266 272 275 277 281 283 287 291 289 289 289 292 295 298 305 312 317 320 326 324 326 343
287 283 281 275 274 272 271 272 274 272 272 273 273 268 266 269 270 267 266 267 265 266 268 270 274 279 281 278 279 286 286 281 286 290 294 297 303 309 314 318 325 325 331
302 292 276 279 277 277 274 275 275 273 277 280 277 273 269 271 272 270 269 266 266 265 265 266 271 278 282 279 273 279 278 278 280 285 288 294 298 303 307 313 317 325 323
297 290 275 285 290 291 291 287 277 276 279 280 282 283 277 272 271 273 275 273 273 266 263 267 272 277 283 280 281 280 271 276 274 278 282 289 293 299 304 307 309 311 316
306 293 275 289 290 286 292 276 284 282 278 275 280 283 275 270 267 277 285 280 272 266 266 270 275 281 283 285 282 277 277 277 280 276 281 282 288 292 297 301 302 305 307
284 314 272 281 280 243 240 238 245 271 283 286 291 287 262 267 270 281 299 304 282 272 272 277 277 285 290 278 282 278 279 283 282 287 286 283 283 285 288 290 294 293 297
251 222 246 228 244 214 226 242 282 301 329 335 334 311 297 294 302 299 297 306 307 285 281 284 292 296 283 279 283 280 282 286 289 290 285 285 285 286 286 288 287 289 291
247 292 290 267 285 301 332 313 305 313 330 322 320 312 314 320 320 324 334 315 303 280 289 285 300 313 302 298 283 283 283 286 291 285 282 288 290 290 292 291 290 288 290
273 279 291 302 316 323 325 324 338 346 354 349 344 341 334 335 339 336 334 321 308 302 310 311 315 324 316 297 308 306 291 288 288 287 283 276 282 287 293 292 290 289 290
302 302 297 306 315 330 338 346 340 338 340 333 336 339 345 340 342 340 335 326 323 316 310 319 320 320 330 330 326 333 320 306 298 288 291 285 283 281 283 286 284 281 285
305 311 313 323 322 323 332 325 337 343 337 334 339 336 333 333 341 339 331 326 325 322 321 327 326 327 318 327 324 323 320 317 318 310 302 298 297 293 280 290 284 286 282
300 314 322 330 334 331 330 343 340 338 330 331 327 326 335 349 349 344 345 341 333 324 329 328 331 325 321 323 321 317 314 316 313 310 310 310 307 303 302 301 297 291 290
322 328 332 328 332 333 334 327 333 331 330 328 322 324 328 348 349 344 341 337 337 329 327 329 326 326 326 325 325 323 320 320 318 317 316 310 310 306 302 300 299 297 292
329 333 329 325 316 313 319 316 320 319 319 332 331 325 330 342 342 338 334 327 326 337 326 320 320 324 327 329 329 327 327 324 323 320 317 315 313 310 309 308 305 301 299
333 331 332 333 334 327 330 329 325 322 317 316 332 342 349 342 333 329 328 317 312 314 316 321 322 322 321 323 326 328 330 328 326 326 326 322 319 316 313 311 309 307 304
337 333 327 329 330 328 326 324 322 322 320 321 324 326 343 342 333 332 334 325 320 319 319 319 320 323 323 321 323 326 326 328 329 327 327 326 325 326 321 316 314 310 306
322 321 319 310 317 316 313 313 312 312 314 317 319 326 328 321 319 321 323 324 323 322 321 319 318 319 318 318 319 319 321 323 323 324 325 324 325 324 322 322 322 320 312
331 330 328 323 321 320 321 318 320 317 315 316 318 321 326 323 318 319 319 319 321 321 321 319 318 319 318 314 313 313 314 316 319 320 321 323 323 322 322 322 321 320 318
324 331 326 323 322 324 320 322 322 324 323 319 316 315 316 317 317 317 317 317 319 320 320 319 318 318 319 316 312 310 308 309 311 315 317 317 319 321 322 323 323 325 323
309 324 326 326 329 328 331 329 328 328 328 327 325 323 319 317 315 313 313 314 315 314 313 314 314 314 316 315 313 309 307 307 309 311 313 313 315 317 317 319 320 320 319
331 331 330 331 329 328 328 329 328 328 327 326 324 322 321 319 317 314 312 312 311 309 308 309 309 309 308 308 308 308 308 309 306 307 308 308 310 312 314 316 318 319 321
329 330 328 329 331 332 332 331 329 328 327 326 325 325 323 321 320 318 317 315 312 310 308 306 306 305 304 304 304 304 305 306 306 306 307 307 307 308 313 314 318 320 323